[[{"header":{"parameterUnit":"m.s-1","parameterCategory":1,"la1":30.2991,"la2":30.254,"lo1":-89.0895,"lo2":-89.0444,"dy":0.0017,"dx":0.0017,"nx":28,"ny":28,"refTime":"2023-11-04T03:00:00:Z","depth":0,"parameterNumber":2,"parameterNumberName":"U-component_of_WINDS"},"data":[0,0,0,0,0,0,0,0,0,0,0,0,0,0,0,0,0,0,0,0,0,0,0,0,0,0,0,0,0,0,0,0,0,0,0,0,0,0,0,0,0,0,0,0,0,0,0,0,0,0,0,0,0,0,0,0,0,0,0.3857,0.3859,0,0.3959,0.3961,0.3962,0.3971,0.397,0.3969,0.3968,0.4076,0.408,0.4084,0,0,0,0,0,0,0,0,0,0,0,0,0,0.3673,0.3676,0.3857,0.3859,0.386,0.3959,0.3961,0.3962,0.3972,0.397,0.3969,0.3968,0.4075,0.408,0.4084,0,0,0,0,0,0,0,0,0,0,0,0,0,0.3762,0.3678,0.3857,0.3877,0.3879,0.3959,0.3961,0.3962,0.3972,0.397,0.3969,0.3967,0.4074,0.4079,0.4085,0.4153,0,0,0.4103,0.4105,0,0,0,0,0,0,0,0,0.3757,0.3769,0.3872,0.3875,0.3879,0.3951,0.3935,0.4027,0.3972,0.3937,0.3968,0.3966,0.4036,0.4045,0.4068,0.4158,0.4163,0.4103,0.4107,0.4109,0.4111,0,0,0,0,0,0,0,0.3751,0.3764,0.3898,0.3874,0.3878,0.3881,0.3892,0.3953,0.3995,0.394,0.3941,0.3952,0.4038,0.4062,0.407,0.4165,0.4103,0.4108,0.4112,0.4114,0.4315,0.4317,0,0,0,0,0,0,0.3741,0.3759,0.3895,0.3901,0.3812,0.3886,0.3898,0.3929,0.3994,0.4002,0.3954,0.3953,0.4053,0.4064,0.4074,0.4157,0.4109,0.4115,0.4118,0.4313,0.4315,0.4317,0,0,0,0,0,0,0.3737,0.3753,0.3891,0.383,0.3848,0.389,0.3926,0.3932,0.3957,0.4004,0.4012,0.3971,0.4052,0.4066,0.4133,0.4161,0.4117,0.4123,0.4311,0.4314,0.4316,0.4324,0,0,0,0,0,0,0.3731,0.3751,0.3777,0.3831,0.3851,0.3947,0.3928,0.3935,0.3966,0.3966,0.4023,0.403,0.4052,0.4124,0.4139,0.4168,0.4127,0.4308,0.4312,0.4315,0.4321,0.4326,0.4331,0,0,0,0,0,0.3725,0.3776,0.3778,0.3795,0.3884,0.3948,0.396,0.3983,0.3969,0.3995,0.4025,0.4029,0.4156,0.4131,0.4147,0.4179,0.4307,0.4311,0.4315,0.4319,0.4325,0.4331,0,0,0,0,0,0,0.3726,0.3784,0.3787,0.3857,0.3897,0.395,0.3984,0.3989,0.4036,0.4033,0.406,0.4073,0.4139,0.4166,0.4137,0.4248,0.423,0.4238,0.4227,0.4234,0.4238,0.423,0.4132,0,0,0,0,0,0.3734,0.3781,0.3829,0.3886,0.3906,0.3942,0.397,0.3984,0.4028,0.4045,0.4081,0.4124,0.4173,0.4205,0.4254,0.4326,0.4337,0.4355,0.436,0.4364,0.437,0.4408,0.4416,0.4331,0.4331,0.4331,0,0,0.3753,0.379,0.3817,0.3888,0.3921,0.3968,0.3956,0.4007,0.4043,0.4054,0.4118,0.4145,0.4195,0.4264,0.4297,0.4289,0.4396,0.4369,0.4372,0.4376,0.4413,0.4422,0.4429,0.4334,0.4333,0.4333,0,0,0.3809,0.3842,0.3893,0.3926,0.3975,0.3998,0.401,0.4062,0.408,0.4144,0.4153,0.4196,0.4281,0.4316,0.4345,0.4413,0.4417,0.4428,0.4453,0.449,0.4497,0.4503,0.4526,0.4534,0.4434,0.4434,0.4434,0,0.3825,0.3896,0.3919,0.3969,0.3999,0.4009,0.4061,0.4092,0.4155,0.4176,0.4167,0.4272,0.4307,0.4383,0.4399,0.4423,0.4437,0.4421,0.4494,0.45,0.4507,0.4529,0.4537,0.4435,0.4435,0.4435,0.4435,0,0.3913,0.3962,0.3997,0.4056,0.409,0.4141,0.4171,0.4204,0.4214,0.4238,0.4304,0.4345,0.4401,0.4421,0.4433,0.4499,0.4492,0.4488,0.4471,0.4515,0.4536,0.4545,0.4436,0.4436,0.4436,0.4435,0,0,0.3973,0.4043,0.4055,0.4081,0.4136,0.4175,0.4226,0.4279,0.4306,0.4349,0.4392,0.4463,0.4459,0.4492,0.4508,0.454,0.459,0.4532,0.4534,0.454,0.4664,0.4665,0.4675,0.4593,0.4595,0.4596,0.4659,0,0.4035,0.4124,0.4145,0.4222,0.4267,0.4277,0.4322,0.4361,0.4384,0.4427,0.4454,0.4503,0.4494,0.4514,0.4547,0.4577,0.4615,0.4573,0.4633,0.4635,0.4619,0.4686,0.4688,0.4745,0.4667,0.4669,0.467,0,0.4118,0.4161,0.4242,0.429,0.4309,0.4349,0.4398,0.4439,0.4483,0.4498,0.4533,0.4546,0.4599,0.458,0.4654,0.4624,0.4651,0.4669,0.4672,0.4677,0.4654,0.4692,0.4764,0.4772,0.4684,0.4682,0.4681,0,0.4152,0.423,0.4288,0.4311,0.4368,0.4395,0.4421,0.4463,0.4493,0.4537,0.4557,0.4607,0.4635,0.4674,0.4699,0.4683,0.4771,0.4753,0.4784,0.4783,0.4801,0.48,0.4877,0.4821,0.4821,0.482,0.482,0,0.4217,0.4266,0.4304,0.4339,0.4394,0.4418,0.4472,0.4498,0.4535,0.4576,0.4589,0.4628,0.466,0.4702,0.4723,0.478,0.4793,0.4807,0.4811,0.4805,0.4803,0.4821,0.4817,0.4823,0.4822,0.4822,0.4821,0,0.4263,0.4291,0.4354,0.4403,0.4416,0.4454,0.4496,0.4531,0.4555,0.4607,0.462,0.4658,0.4709,0.4738,0.4804,0.4817,0.488,0.4884,0.4865,0.4866,0.4895,0.4891,0.4986,0.4999,0.4935,0.4936,0.4936,0,0.4302,0.434,0.4392,0.4419,0.4444,0.4489,0.452,0.4545,0.4576,0.4628,0.4657,0.4708,0.4751,0.4832,0.4866,0.4915,0.4919,0.4949,0.4927,0.4918,0.4918,0.4914,0.4918,0.4952,0.4953,0.4953,0.4954,0,0.4368,0.438,0.4422,0.4469,0.4505,0.4543,0.4582,0.4604,0.4636,0.467,0.4722,0.4754,0.4819,0.487,0.4922,0.4949,0.4957,0.496,0.497,0.4963,0.4949,0.4955,0.4873,0.4958,0.4957,0.4957,0.4957,0.4957,0.4411,0.4444,0.4485,0.4532,0.4563,0.4598,0.4633,0.4661,0.4703,0.4757,0.477,0.4824,0.4866,0.4937,0.4965,0.5008,0.5002,0.5017,0.502,0.5023,0.5022,0.4943,0.5018,0.5017,0.5017,0.5017,0.5017,0,0.4476,0.4503,0.4545,0.4598,0.4634,0.4637,0.468,0.471,0.4757,0.4796,0.4836,0.4895,0.4944,0.4981,0.5031,0.5058,0.5063,0.507,0.5068,0.5074,0.5025,0.5011,0.5065,0.5065,0.5065,0.5065,0.5065,0.5065,0.4514,0.4569,0.4586,0.4656,0.4683,0.4735,0.4758,0.4791,0.4822,0.4886,0.4926,0.4949,0.4987,0.504,0.5085,0.5095,0.5112,0.5119,0.5129,0.5083,0.5077,0.5072,0.5059,0.5123,0.5123,0.5174,0.5174,0.5174]},{"header":{"parameterUnit":"m.s-1","parameterCategory":1,"la1":30.2991,"la2":30.254,"lo1":-89.0895,"lo2":-89.0444,"dy":0.0017,"dx":0.0017,"nx":28,"ny":28,"refTime":"2023-11-04T03:00:00:Z","depth":0,"parameterNumber":3,"parameterNumberName":"V-component_of_WINDS"},"data":[0,0,0,0,0,0,0,0,0,0,0,0,0,0,0,0,0,0,0,0,0,0,0,0,0,0,0,0,0,0,0,0,0,0,0,0,0,0,0,0,0,0,0,0,0,0,0,0,0,0,0,0,0,0,0,0,0,0,0.8726,0.8725,0,0.8613,0.8612,0.861,0.8537,0.8537,0.8536,0.8536,0.8416,0.8414,0.8411,0,0,0,0,0,0,0,0,0,0,0,0,0,0.8875,0.8873,0.8726,0.8725,0.8724,0.8613,0.8612,0.861,0.8537,0.8537,0.8536,0.8535,0.8417,0.8414,0.8411,0,0,0,0,0,0,0,0,0,0,0,0,0,0.8791,0.8872,0.8727,0.8674,0.8668,0.8613,0.8611,0.861,0.8537,0.8536,0.8536,0.8535,0.8418,0.8414,0.841,0.8398,0,0,0.8398,0.8396,0,0,0,0,0,0,0,0,0.8796,0.8785,0.8683,0.8677,0.8671,0.8588,0.862,0.8539,0.8537,0.8587,0.8536,0.8535,0.8474,0.8465,0.8445,0.8392,0.8387,0.8397,0.8395,0.8393,0.8392,0,0,0,0,0,0,0,0.8802,0.879,0.8681,0.8682,0.8674,0.8654,0.8642,0.8604,0.8535,0.8582,0.8577,0.8565,0.847,0.8449,0.8442,0.8386,0.8397,0.8394,0.8391,0.8389,0.8313,0.8313,0,0,0,0,0,0,0.8816,0.8795,0.8685,0.8678,0.8733,0.8652,0.8638,0.8616,0.8536,0.8523,0.8565,0.8562,0.8457,0.8447,0.8437,0.8415,0.8393,0.8389,0.8387,0.8313,0.8313,0.8314,0,0,0,0,0,0,0.882,0.8807,0.869,0.8735,0.8719,0.865,0.8626,0.8614,0.8593,0.8523,0.851,0.8557,0.8456,0.8443,0.8408,0.841,0.8387,0.8383,0.8312,0.8313,0.8313,0.8373,0,0,0,0,0,0,0.8824,0.8809,0.8805,0.8736,0.8716,0.8664,0.8626,0.8612,0.8586,0.858,0.8511,0.8499,0.8454,0.8414,0.8404,0.8404,0.838,0.8311,0.8312,0.8313,0.8371,0.8376,0.838,0,0,0,0,0,0.883,0.8826,0.8805,0.8792,0.871,0.8664,0.8653,0.8602,0.8587,0.8581,0.8535,0.8501,0.8412,0.8411,0.8399,0.8398,0.8311,0.8312,0.8313,0.8368,0.8375,0.838,0,0,0,0,0,0,0.8898,0.8816,0.8792,0.8766,0.8723,0.8652,0.8643,0.8611,0.857,0.8566,0.8504,0.8489,0.8459,0.8425,0.8426,0.838,0.8357,0.8356,0.8404,0.8409,0.8414,0.8422,0.8377,0,0,0,0,0,0.891,0.888,0.881,0.8794,0.8773,0.8712,0.869,0.8655,0.8607,0.8588,0.854,0.8493,0.8454,0.843,0.839,0.8365,0.8348,0.8358,0.8363,0.8367,0.8366,0.8347,0.8351,0.8317,0.8317,0.8317,0,0,0.8934,0.8886,0.8871,0.8806,0.8768,0.8737,0.8697,0.8667,0.8642,0.8583,0.8546,0.8509,0.8453,0.8422,0.8406,0.8392,0.8372,0.8369,0.8373,0.8369,0.8349,0.8352,0.8355,0.8318,0.8318,0.8317,0,0,0.8962,0.8924,0.8904,0.8867,0.881,0.8769,0.8765,0.8698,0.8671,0.8633,0.8587,0.8556,0.8492,0.8452,0.8424,0.8434,0.84,0.8423,0.8448,0.843,0.8433,0.8435,0.8436,0.8437,0.8423,0.8423,0.8423,0,0.8999,0.8951,0.8899,0.887,0.8841,0.8787,0.8765,0.8731,0.8664,0.8645,0.8631,0.8546,0.8505,0.8462,0.8465,0.8445,0.8435,0.843,0.8437,0.8438,0.8439,0.844,0.8441,0.8426,0.8426,0.8425,0.8425,0,0.8998,0.8966,0.8957,0.8893,0.8864,0.884,0.8781,0.8757,0.8724,0.8684,0.8644,0.8592,0.854,0.8528,0.8495,0.848,0.8473,0.8449,0.8424,0.8446,0.8446,0.8446,0.843,0.8429,0.8428,0.8428,0,0,0.9066,0.8972,0.897,0.8939,0.8871,0.8844,0.8816,0.8765,0.8745,0.87,0.8673,0.8618,0.8595,0.8562,0.8525,0.8509,0.8517,0.8487,0.8484,0.8492,0.8494,0.8511,0.8512,0.8495,0.8495,0.8495,0.8498,0,0.9082,0.9029,0.898,0.8944,0.8912,0.8858,0.8833,0.8787,0.8749,0.8714,0.867,0.8632,0.8605,0.8585,0.8568,0.8521,0.8517,0.852,0.8467,0.8465,0.8481,0.8512,0.8531,0.8537,0.8497,0.8497,0.8497,0,0.9094,0.9051,0.9012,0.8945,0.893,0.8908,0.8856,0.8825,0.8771,0.8743,0.8707,0.8666,0.8631,0.8611,0.8561,0.8564,0.8539,0.8512,0.8511,0.8503,0.8482,0.8503,0.8537,0.8538,0.8497,0.8497,0.8497,0,0.9144,0.9077,0.9044,0.902,0.8941,0.8927,0.8893,0.8839,0.8811,0.8765,0.8745,0.8696,0.8669,0.863,0.8577,0.8568,0.8531,0.8507,0.8505,0.8506,0.8498,0.8499,0.8527,0.8486,0.8486,0.8486,0.8486,0,0.9166,0.9144,0.9065,0.9045,0.9018,0.896,0.8934,0.8895,0.8847,0.8817,0.8767,0.8739,0.8671,0.8635,0.8593,0.8555,0.8544,0.8519,0.8508,0.8522,0.8525,0.8504,0.8502,0.8486,0.8486,0.8486,0.8486,0,0.9217,0.9164,0.9125,0.9053,0.9034,0.9017,0.8955,0.8932,0.889,0.8852,0.884,0.8773,0.8727,0.867,0.8607,0.8578,0.8544,0.8528,0.8563,0.8556,0.8556,0.8556,0.857,0.8568,0.853,0.8531,0.8531,0,0.9234,0.9216,0.9142,0.9118,0.9086,0.9049,0.902,0.8962,0.8933,0.8869,0.8853,0.8804,0.8761,0.869,0.8634,0.8584,0.8566,0.8574,0.8558,0.8572,0.8563,0.8564,0.8561,0.8578,0.8578,0.8579,0.858,0,0.9269,0.9243,0.9203,0.9154,0.912,0.9078,0.9034,0.9017,0.8949,0.8919,0.8872,0.8839,0.8773,0.8723,0.8666,0.8629,0.8592,0.8585,0.8581,0.8596,0.8615,0.8602,0.8572,0.8585,0.8584,0.8584,0.8584,0.8583,0.9301,0.9281,0.9226,0.9182,0.9143,0.9102,0.9077,0.9031,0.8991,0.8933,0.8901,0.8854,0.8798,0.8717,0.8681,0.8642,0.8629,0.8624,0.8623,0.8622,0.8626,0.8623,0.8632,0.8631,0.8631,0.8631,0.8631,0,0.9331,0.9293,0.9253,0.9193,0.9158,0.9128,0.9076,0.9049,0.9009,0.896,0.8918,0.8863,0.8814,0.8754,0.8701,0.8681,0.8662,0.8669,0.8669,0.866,0.8642,0.8649,0.8684,0.8684,0.8684,0.8684,0.8684,0.8684,0.9343,0.9306,0.9274,0.9216,0.9177,0.9131,0.9104,0.9066,0.9026,0.8966,0.8926,0.8888,0.8834,0.8776,0.8728,0.8712,0.8694,0.8705,0.8683,0.8667,0.8662,0.8657,0.8664,0.8702,0.8702,0.8704,0.8704,0.8704]}]]